datetime,flow
2011-01-01,5005.5
2011-01-02,5160.125
2011-01-03,4409.625
2011-01-04,4470.5
2011-01-05,4444.375
2011-01-06,4240.875
2011-01-07,3822.70833
2011-01-08,3630.95833
2011-01-09,4302.41667
2011-01-10,4643.95833
2011-01-11,4761.0
2011-01-12,4535.625
2011-01-13,4331.91667
2011-01-14,3683.45833
2011-01-15,4681.04167
2011-01-16,5415.375
2011-01-17,6234.5
2011-01-18,7065.91667
2011-01-19,6917.625
2011-01-20,6567.91667
2011-01-21,5853.29167
2011-01-22,7770.70833
2011-01-23,8106.04167
2011-01-24,8350.83333
2011-01-25,7813.70833
2011-01-26,6187.70833
2011-01-27,5721.79167
2011-01-28,5870.70833
2011-01-29,7433.04167
2011-01-30,7891.5
2011-01-31,7331.58333
2011-02-01,6334.41667
2011-02-02,6593.875
2011-02-03,6860.25
2011-02-04,6470.95833
2011-02-05,6290.5
2011-02-06,5764.20833
2011-02-07,6518.125
2011-02-08,6987.04167
2011-02-09,7448.04167
2011-02-10,7076.29167
2011-02-11,6334.20833
2011-02-12,6788.83333
2011-02-13,7575.04167
2011-02-14,7402.83333
2011-02-15,6006.08333
2011-02-16,5632.33333
2011-02-17,6009.75
2011-02-18,6901.16667
2011-02-19,8324.54167
2011-02-20,8386.5
2011-02-21,8011.54167
2011-02-22,6738.83333
2011-02-23,5930.41667
2011-02-24,4486.20833
2011-02-25,4615.875
2011-02-26,6821.33333
2011-02-27,7309.75
2011-02-28,7312.04167
2011-03-01,10008.25
2011-03-02,11752.1667
2011-03-03,10779.8333
2011-03-04,9038.75
2011-03-05,9335.25
2011-03-06,9687.16667
2011-03-07,9702.41667
2011-03-08,9030.25
2011-03-09,9105.66667
2011-03-10,9860.33333
2011-03-11,8977.54167
2011-03-12,11773.4167
2011-03-13,12524.8333
2011-03-14,11536.9167
2011-03-15,11219.8333
2011-03-16,10245.375
2011-03-17,9475.0
2011-03-18,8982.66667
2011-03-19,9530.16667
2011-03-20,9782.66667
2011-03-21,9590.33333
2011-03-22,9651.83333
2011-03-23,10082.625
2011-03-24,8901.75
2011-03-25,8295.45833
2011-03-26,9657.5
2011-03-27,10681.25
2011-03-28,10595.2917
2011-03-29,10872.0417
2011-03-30,11313.0833
2011-03-31,11354.5833
2011-04-01,11111.0
2011-04-02,13413.6667
2011-04-03,13507.5
2011-04-04,13091.3333
2011-04-05,12892.7083
2011-04-06,13665.3333
2011-04-07,12463.5833
2011-04-08,11916.4583
2011-04-09,13283.7083
2011-04-10,12844.5417
2011-04-11,12744.1667
2011-04-12,12239.125
2011-04-13,11905.3333
2011-04-14,10316.2083
2011-04-15,8044.33333
2011-04-16,10863.375
2011-04-17,12790.4167
2011-04-18,12633.2917
2011-04-19,12419.4167
2011-04-20,12430.25
2011-04-21,11786.0833
2011-04-22,8973.29167
2011-04-23,12520.875
2011-04-24,12059.9583
2011-04-25,11919.2917
2011-04-26,11703.9167
2011-04-27,10888.9167
2011-04-28,8910.875
2011-04-29,8833.20833
2011-04-30,10293.125
2011-05-01,10528.375
2011-05-02,10679.3333
2011-05-03,11084.0833
2011-05-04,11571.375
2011-05-05,11118.4583
2011-05-06,10053.4167
2011-05-07,11522.375
2011-05-08,12152.9167
2011-05-09,11816.5
2011-05-10,10792.125
2011-05-11,9938.625
2011-05-12,9176.08333
2011-05-13,7707.58333
2011-05-14,8719.25
2011-05-15,9806.04167
2011-05-16,9610.08333
2011-05-17,8958.04167
2011-05-18,8943.375
2011-05-19,8370.25
2011-05-20,7247.08333
2011-05-21,9011.41667
2011-05-22,9214.29167
2011-05-23,8913.5
2011-05-24,9053.25
2011-05-25,8419.29167
2011-05-26,7354.04167
2011-05-27,6827.54167
2011-05-28,8751.125
2011-05-29,9582.95833
2011-05-30,9327.58333
2011-05-31,8838.41667
2011-06-01,8237.25
2011-06-02,8198.66667
2011-06-03,7099.66667
2011-06-04,9604.125
2011-06-05,9846.20833
2011-06-06,9775.5
2011-06-07,10303.0
2011-06-08,10096.9167
2011-06-09,8168.0
2011-06-10,7209.08333
2011-06-11,9936.54167
2011-06-12,9683.08333
2011-06-13,9960.125
2011-06-14,9805.83333
2011-06-15,8974.66667
2011-06-16,8267.875
2011-06-17,7140.20833
2011-06-18,10356.375
2011-06-19,10151.2083
2011-06-20,10406.0833
2011-06-21,10605.75
2011-06-22,11250.875
2011-06-23,9705.41667
2011-06-24,8588.125
2011-06-25,12150.3333
2011-06-26,11318.875
2011-06-27,11620.5
2011-06-28,10951.0417
2011-06-29,10163.4583
2011-06-30,9619.58333
2011-07-01,9130.33333
2011-07-02,11846.5
2011-07-03,12045.9167
2011-07-04,11457.6667
2011-07-05,11488.8333
2011-07-06,12232.875
2011-07-07,10529.125
2011-07-08,9033.58333
2011-07-09,10244.0
2011-07-10,10147.375
2011-07-11,9684.875
2011-07-12,9152.04167
2011-07-13,8280.95833
2011-07-14,8976.41667
2011-07-15,9406.375
2011-07-16,10944.2917
2011-07-17,11102.5
2011-07-18,11533.5833
2011-07-19,11267.8333
2011-07-20,11068.2917
2011-07-21,10118.625
2011-07-22,9610.66667
2011-07-23,10757.125
2011-07-24,11402.0
2011-07-25,11212.0
2011-07-26,10386.375
2011-07-27,9909.25
2011-07-28,8749.95833
2011-07-29,8224.79167
2011-07-30,9569.125
2011-07-31,9717.79167
2011-08-01,9471.0
2011-08-02,9633.16667
2011-08-03,9473.25
2011-08-04,8537.25
2011-08-05,7393.45833
2011-08-06,9533.66667
2011-08-07,9723.08333
2011-08-08,9944.70833
2011-08-09,9458.20833
2011-08-10,9016.125
2011-08-11,7912.04167
2011-08-12,6238.33333
2011-08-13,8471.0
2011-08-14,9222.04167
2011-08-15,9276.41667
2011-08-16,8843.83333
2011-08-17,8723.91667
2011-08-18,7994.41667
2011-08-19,7239.20833
2011-08-20,8576.29167
2011-08-21,8914.75
2011-08-22,9051.08333
2011-08-23,9510.625
2011-08-24,8668.5
2011-08-25,8036.79167
2011-08-26,6744.41667
2011-08-27,7838.375
2011-08-28,8246.04167
2011-08-29,8620.16667
2011-08-30,8619.04167
2011-08-31,8320.83333
2011-09-01,8083.54167
2011-09-02,6560.33333
2011-09-03,8373.29167
2011-09-04,8524.125
2011-09-05,8043.79167
2011-09-06,7143.45833
2011-09-07,7215.375
2011-09-08,6294.79167
2011-09-09,5541.5
2011-09-10,6901.29167
2011-09-11,7747.16667
2011-09-12,8251.875
2011-09-13,8569.29167
2011-09-14,8705.75
2011-09-15,6908.04167
2011-09-16,5100.625
2011-09-17,6698.16667
2011-09-18,7241.66667
2011-09-19,7825.54167
2011-09-20,7494.66667
2011-09-21,7585.95833
2011-09-22,7104.66667
2011-09-23,5311.95833
2011-09-24,7364.5
2011-09-25,7469.04167
2011-09-26,7729.625
2011-09-27,7990.83333
2011-09-28,8951.29167
2011-09-29,8609.625
2011-09-30,6445.75
2011-10-01,7728.66667
2011-10-02,7934.29167
2011-10-03,8155.0
2011-10-04,7774.91667
2011-10-05,7016.79167
2011-10-06,6220.29167
2011-10-07,5598.45833
2011-10-08,6143.45833
2011-10-09,6753.91667
2011-10-10,7158.375
2011-10-11,7405.20833
2011-10-12,7911.08333
2011-10-13,7323.83333
2011-10-14,5579.875
2011-10-15,6804.875
2011-10-16,6933.75
2011-10-17,7245.04167
2011-10-18,7136.41667
2011-10-19,6903.95833
2011-10-20,6293.58333
2011-10-21,5051.79167
2011-10-22,6538.16667
2011-10-23,6822.91667
2011-10-24,6977.91667
2011-10-25,6310.29167
2011-10-26,6265.66667
2011-10-27,5420.04167
2011-10-28,4604.25
2011-10-29,6218.70833
2011-10-30,6958.0
2011-10-31,7058.875
2011-11-01,6423.25
2011-11-02,5833.29167
2011-11-03,5240.29167
2011-11-04,4665.79167
2011-11-05,5823.70833
2011-11-06,6313.04167
2011-11-07,6341.54167
2011-11-08,5597.95833
2011-11-09,4882.58333
2011-11-10,4768.375
2011-11-11,4347.20833
2011-11-12,4783.70833
2011-11-13,4734.33333
2011-11-14,4720.54167
2011-11-15,4797.95833
2011-11-16,4630.25
2011-11-17,4393.625
2011-11-18,3536.875
2011-11-19,4210.29167
2011-11-20,4180.08333
2011-11-21,4597.75
2011-11-22,4416.58333
2011-11-23,4617.58333
2011-11-24,4891.20833
2011-11-25,4765.08333
2011-11-26,5029.5
2011-11-27,5255.45833
2011-11-28,5535.95833
2011-11-29,5956.66667
2011-11-30,6563.20833
2011-12-01,5901.75
2011-12-02,4918.58333
2011-12-03,5276.91667
2011-12-04,5489.875
2011-12-05,5810.41667
2011-12-06,6366.08333
2011-12-07,6363.91667
2011-12-08,6087.66667
2011-12-09,4299.5
2011-12-10,5175.20833
2011-12-11,5183.125
2011-12-12,4901.20833
2011-12-13,4493.875
2011-12-14,3512.66667
2011-12-15,3332.83333
2011-12-16,2591.0
2011-12-17,3279.66667
2011-12-18,3672.04167
2011-12-19,4009.875
2011-12-20,3295.58333
2011-12-21,2431.625
2011-12-22,2073.66667
2011-12-23,1818.33333
2011-12-24,3187.08333
2011-12-25,3894.375
2011-12-26,3424.75
2011-12-27,2829.91667
2011-12-28,2800.33333
2011-12-29,3153.25
2011-12-30,4210.45833
2011-12-31,4734.04167
2012-01-01,4980.625
2012-01-02,5337.5
2012-01-03,5583.16667
2012-01-04,5054.75
2012-01-05,4685.95833
2012-01-06,4095.08333
2012-01-07,4808.70833
2012-01-08,4597.04167
2012-01-09,5294.16667
2012-01-10,4676.91667
2012-01-11,4412.125
2012-01-12,5031.16667
2012-01-13,4293.33333
2012-01-14,4860.875
2012-01-15,5708.16667
2012-01-16,5652.33333
2012-01-17,5786.91667
2012-01-18,5537.95833
2012-01-19,4794.54167
2012-01-20,5110.16667
2012-01-21,6004.95833
2012-01-22,6291.125
2012-01-23,6612.125
2012-01-24,6409.83333
2012-01-25,5954.125
2012-01-26,5602.0
2012-01-27,4935.375
2012-01-28,5685.70833
2012-01-29,6194.91667
2012-01-30,6956.04167
2012-01-31,6886.04167
2012-02-01,6676.95833
2012-02-02,6061.20833
2012-02-03,5146.45833
2012-02-04,5992.70833
2012-02-05,6593.25
2012-02-06,6848.33333
2012-02-07,6567.375
2012-02-08,6723.94891
2012-02-09,5980.14536
2012-02-10,5023.52909
2012-02-11,6432.54777
2012-02-12,7247.79167
2012-02-13,7404.16667
2012-02-14,7152.625
2012-02-15,7022.625
2012-02-16,7188.125
2012-02-17,5527.58333
2012-02-18,6675.66667
2012-02-19,6710.83333
2012-02-20,7003.125
2012-02-21,6739.91667
2012-02-22,7561.66667
2012-02-23,7810.41667
2012-02-24,6543.33333
2012-02-25,8382.16667
2012-02-26,9851.66667
2012-02-27,9894.08333
2012-02-28,9484.08333
2012-02-29,9986.5
2012-03-01,10794.5833
2012-03-02,8235.95833
2012-03-03,9027.875
2012-03-04,9481.375
2012-03-05,9374.91667
2012-03-06,9271.41667
2012-03-07,9632.375
2012-03-08,9145.79167
2012-03-09,8438.83333
2012-03-10,9313.66667
2012-03-11,9934.875
2012-03-12,10407.25
2012-03-13,10292.2917
2012-03-14,11495.75
2012-03-15,11132.4583
2012-03-16,8623.41667
2012-03-17,9618.29167
2012-03-18,10148.2917
2012-03-19,10745.7917
2012-03-20,10367.375
2012-03-21,10468.3333
2012-03-22,10421.2083
2012-03-23,8695.0
2012-03-24,9564.79167
2012-03-25,10103.7083
2012-03-26,10708.5833
2012-03-27,10594.375
2012-03-28,11161.1667
2012-03-29,11277.8333
2012-03-30,9783.83333
2012-03-31,11384.8333
2012-04-01,12561.9167
2012-04-02,12753.5
2012-04-03,13173.0417
2012-04-04,13320.0
2012-04-05,12590.5
2012-04-06,8496.45833
2012-04-07,10961.8333
2012-04-08,11039.9167
2012-04-09,10981.6667
2012-04-10,10224.0417
2012-04-11,10210.2083
2012-04-12,9706.5
2012-04-13,8501.95833
2012-04-14,9836.16667
2012-04-15,11060.9583
2012-04-16,12252.5833
2012-04-17,11372.7083
2012-04-18,11147.5833
2012-04-19,12453.75
2012-04-20,8496.16667
2012-04-21,10777.375
2012-04-22,11666.3333
2012-04-23,12209.875
2012-04-24,12490.5417
2012-04-25,12333.3333
2012-04-26,12634.7083
2012-04-27,8635.33333
2012-04-28,10824.875
2012-04-29,10833.75
2012-04-30,10719.0417
2012-05-01,10744.625
2012-05-02,10072.25
2012-05-03,10230.3333
2012-05-04,8690.33333
2012-05-05,9011.45833
2012-05-06,9706.20833
2012-05-07,9683.58333
2012-05-08,9515.5
2012-05-09,9602.0
2012-05-10,9263.04167
2012-05-11,8101.83333
2012-05-12,9086.33333
2012-05-13,9992.29167
2012-05-14,10689.7917
2012-05-15,10529.4167
2012-05-16,10264.0
2012-05-17,8603.625
2012-05-18,6421.125
2012-05-19,7744.91667
2012-05-20,8709.83333
2012-05-21,8980.66667
2012-05-22,9546.83333
2012-05-23,9580.08333
2012-05-24,8545.66667
2012-05-25,6741.91667
2012-05-26,8078.33333
2012-05-27,8599.70833
2012-05-28,8779.70833
2012-05-29,9186.875
2012-05-30,8655.25
2012-05-31,8070.91667
2012-06-01,6352.125
2012-06-02,7872.75
2012-06-03,8296.125
2012-06-04,8829.0
2012-06-05,9020.45833
2012-06-06,9423.33333
2012-06-07,9360.79167
2012-06-08,7511.79167
2012-06-09,7714.25
2012-06-10,9068.16667
2012-06-11,9280.25
2012-06-12,9241.79167
2012-06-13,9299.5
2012-06-14,8313.5
2012-06-15,7288.0
2012-06-16,8760.125
2012-06-17,9910.5
2012-06-18,10034.9583
2012-06-19,9865.54167
2012-06-20,9391.0
2012-06-21,9625.79167
2012-06-22,7925.79167
2012-06-23,8769.75
2012-06-24,9486.70833
2012-06-25,10027.9583
2012-06-26,10425.4583
2012-06-27,10982.5417
2012-06-28,10925.9583
2012-06-29,8215.04167
2012-06-30,8975.04167
2012-07-01,9885.91667
2012-07-02,9992.54167
2012-07-03,10114.2917
2012-07-04,10157.0833
2012-07-05,9417.33333
2012-07-06,7827.0
2012-07-07,8640.70833
2012-07-08,8935.125
2012-07-09,9296.66667
2012-07-10,9299.54167
2012-07-11,9069.25
2012-07-12,8520.41667
2012-07-13,7731.08333
2012-07-14,9069.875
2012-07-15,8569.33333
2012-07-16,7355.08333
2012-07-17,6627.125
2012-07-18,6870.83333
2012-07-19,6861.95833
2012-07-20,6621.08333
2012-07-21,7605.70833
2012-07-22,8216.58333
2012-07-23,8682.375
2012-07-24,9034.0
2012-07-25,9153.58333
2012-07-26,8185.91667
2012-07-27,6982.70833
2012-07-28,7837.625
2012-07-29,8153.08333
2012-07-30,7902.20833
2012-07-31,8144.70833
2012-08-01,7564.29167
2012-08-02,5235.33333
2012-08-03,4561.0
2012-08-04,5808.625
2012-08-05,5507.5
2012-08-06,5945.79167
2012-08-07,6417.5
2012-08-08,7970.0
2012-08-09,7877.95833
2012-08-10,6533.875
2012-08-11,7442.33333
2012-08-12,7911.41667
2012-08-13,8917.16667
2012-08-14,7851.79167
2012-08-15,7900.0
2012-08-16,7425.70833
2012-08-17,6292.79167
2012-08-18,7016.16667
2012-08-19,7678.58333
2012-08-20,8781.625
2012-08-21,7505.20833
2012-08-22,7137.91667
2012-08-23,7093.79167
2012-08-24,5368.58333
2012-08-25,6047.41667
2012-08-26,6913.41667
2012-08-27,6574.16667
2012-08-28,6433.45833
2012-08-29,6626.25
2012-08-30,6833.04167
2012-08-31,6300.20833
2012-09-01,6980.20833
2012-09-02,8075.95833
2012-09-03,8326.79167
2012-09-04,7630.33333
2012-09-05,6859.79167
2012-09-06,6367.25
2012-09-07,5232.58333
2012-09-08,6922.58333
2012-09-09,7513.45833
2012-09-10,7329.58333
2012-09-11,6541.83333
2012-09-12,6303.20833
2012-09-13,5722.125
2012-09-14,4736.41667
2012-09-15,5658.20833
2012-09-16,6668.125
2012-09-17,7295.91667
2012-09-18,7434.95833
2012-09-19,7142.75
2012-09-20,6526.16667
2012-09-21,5649.875
2012-09-22,6477.0
2012-09-23,7738.25
2012-09-24,8054.83333
2012-09-25,8371.08333
2012-09-26,8445.75
2012-09-27,8600.45833
2012-09-28,7383.83333
2012-09-29,7479.58333
2012-09-30,7844.5
2012-10-01,7514.375
2012-10-02,7026.16667
2012-10-03,6994.20833
2012-10-04,6367.95833
2012-10-05,5949.54167
2012-10-06,7037.91667
2012-10-07,7346.20833
2012-10-08,7695.20833
2012-10-09,7848.375
2012-10-10,8266.66667
2012-10-11,7956.58333
2012-10-12,6499.0
2012-10-13,6656.08333
2012-10-14,7365.33333
2012-10-15,7897.625
2012-10-16,7123.83333
2012-10-17,6499.0
2012-10-18,5468.79167
2012-10-19,4883.83333
2012-10-20,6146.375
2012-10-21,6233.91667
2012-10-22,6628.375
2012-10-23,6139.16667
2012-10-24,6108.125
2012-10-25,4906.25
2012-10-26,4474.29167
2012-10-27,5395.08333
2012-10-28,5897.95833
2012-10-29,6128.75
2012-10-30,6181.45833
2012-10-31,6307.875
2012-11-01,5288.29167
2012-11-02,4432.83333
2012-11-03,5289.04167
2012-11-04,5505.0
2012-11-05,5427.54167
2012-11-06,5712.83333
2012-11-07,5545.25
2012-11-08,4986.125
2012-11-09,5033.0
2012-11-10,5611.79167
2012-11-11,5771.54167
2012-11-12,5730.875
2012-11-13,5564.54167
2012-11-14,5546.08333
2012-11-15,5092.04167
2012-11-16,4237.75
2012-11-17,4869.0
2012-11-18,5269.75
2012-11-19,5733.5
2012-11-20,5317.04167
2012-11-21,5467.16667
2012-11-22,5609.16667
2012-11-23,4824.25
2012-11-24,4653.33333
2012-11-25,4711.875
2012-11-26,5081.875
2012-11-27,4291.08333
2012-11-28,3907.95833
2012-11-29,4127.54167
2012-11-30,3919.125
2012-12-01,5202.08333
2012-12-02,5772.41667
2012-12-03,6000.04167
2012-12-04,5764.625
2012-12-05,5810.16667
2012-12-06,5036.16667
2012-12-07,4050.625
2012-12-08,4438.0
2012-12-09,4812.45833
2012-12-10,5088.79167
2012-12-11,4252.79167
2012-12-12,4375.66667
2012-12-13,4116.16667
2012-12-14,3764.41667
2012-12-15,3814.625
2012-12-16,3962.20833
2012-12-17,3842.91667
2012-12-18,3995.45833
2012-12-19,3660.45833
2012-12-20,3036.08333
2012-12-21,2611.0
2012-12-22,2199.33333
2012-12-23,1860.25
2012-12-24,3674.625
2012-12-25,5459.375
2012-12-26,5270.125
2012-12-27,4440.875
2012-12-28,3505.25
2012-12-29,3746.66667
2012-12-30,3831.83333
2012-12-31,4459.875
2013-01-01,4901.45833
2013-01-02,4823.20833
2013-01-03,4478.75
2013-01-04,3723.83333
2013-01-05,4443.58333
2013-01-06,5520.58333
2013-01-07,5810.33333
2013-01-08,5537.29167
2013-01-09,4859.83333
2013-01-10,4503.75
2013-01-11,4292.04167
2013-01-12,4958.29167
2013-01-13,5946.08333
2013-01-14,6105.625
2013-01-15,5667.375
2013-01-16,5585.70833
2013-01-17,4999.04167
2013-01-18,4672.66667
2013-01-19,5607.83333
2013-01-20,6353.75
2013-01-21,6644.5
2013-01-22,6874.45833
2013-01-23,6720.79167
2013-01-24,6082.5
2013-01-25,5414.0
2013-01-26,6200.5
2013-01-27,5645.29167
2013-01-28,4555.875
2013-01-29,4501.70833
2013-01-30,4392.83333
2013-01-31,4375.375
2013-02-01,4017.33333
2013-02-02,4747.29167
2013-02-03,5541.20833
2013-02-04,6446.20833
2013-02-05,6852.16667
2013-02-06,5991.0
2013-02-07,5261.54167
2013-02-08,3799.625
2013-02-09,5006.70833
2013-02-10,5897.125
2013-02-11,6486.25
2013-02-12,7174.08333
2013-02-13,7949.29167
2013-02-14,8037.29167
2013-02-15,6273.29167
2013-02-16,7742.75
2013-02-17,7578.33333
2013-02-18,6873.66667
2013-02-19,6604.41667
2013-02-20,7509.70833
2013-02-21,7011.29167
2013-02-22,6596.91667
2013-02-23,8126.20833
2013-02-24,8176.08333
2013-02-25,7994.83333
2013-02-26,8238.20833
2013-02-27,8695.875
2013-02-28,7362.29167
2013-03-01,6833.95833
2013-03-02,7851.79167
2013-03-03,8430.41667
2013-03-04,8772.5
2013-03-05,8816.25
2013-03-06,8779.95833
2013-03-07,7665.0
2013-03-08,6451.04167
2013-03-09,7826.29167
2013-03-10,8145.29167
2013-03-11,8539.16667
2013-03-12,8805.5
2013-03-13,9688.29167
2013-03-14,9594.91667
2013-03-15,8644.33333
2013-03-16,9766.91667
2013-03-17,10916.0417
2013-03-18,10840.9167
2013-03-19,10507.25
2013-03-20,10484.0833
2013-03-21,9496.58333
2013-03-22,7939.125
2013-03-23,9012.625
2013-03-24,9864.08333
2013-03-25,10087.5833
2013-03-26,10293.6667
2013-03-27,10641.1667
2013-03-28,9435.04167
2013-03-29,7995.125
2013-03-30,9570.41667
2013-03-31,9936.70833
2013-04-01,9934.54167
2013-04-02,10256.9583
2013-04-03,10309.7917
2013-04-04,10213.875
2013-04-05,10226.4167
2013-04-06,11047.75
2013-04-07,11911.375
2013-04-08,11787.2917
2013-04-09,11369.7917
2013-04-10,10531.0417
2013-04-11,10741.9167
2013-04-12,7433.33333
2013-04-13,9598.16667
2013-04-14,10515.0833
2013-04-15,10493.0
2013-04-16,10287.2083
2013-04-17,10368.8333
2013-04-18,9966.33333
2013-04-19,8127.625
2013-04-20,9075.33333
2013-04-21,10197.0417
2013-04-22,11251.8333
2013-04-23,11759.0417
2013-04-24,12283.7083
2013-04-25,11929.9167
2013-04-26,8656.625
2013-04-27,9986.54167
2013-04-28,9833.83333
2013-04-29,9503.33333
2013-04-30,10093.875
2013-05-01,9729.08333
2013-05-02,8897.66667
2013-05-03,7521.0
2013-05-04,8680.04167
2013-05-05,8482.04167
2013-05-06,8457.375
2013-05-07,8390.5
2013-05-08,8256.16667
2013-05-09,7862.5
2013-05-10,7607.45833
2013-05-11,8339.95833
2013-05-12,8430.66667
2013-05-13,8334.66667
2013-05-14,8410.41667
2013-05-15,8735.875
2013-05-16,9098.16667
2013-05-17,7442.95833
2013-05-18,8808.66667
2013-05-19,9385.95833
2013-05-20,9430.625
2013-05-21,8712.75
2013-05-22,7820.91667
2013-05-23,6969.91667
2013-05-24,6235.5
2013-05-25,7132.79167
2013-05-26,8685.04167
2013-05-27,9051.54167
2013-05-28,8862.33333
2013-05-29,9123.29167
2013-05-30,8218.16667
2013-05-31,6500.41667
2013-06-01,7831.08333
2013-06-02,8813.33333
2013-06-03,8958.41667
2013-06-04,9061.70833
2013-06-05,9368.125
2013-06-06,8991.875
2013-06-07,7193.375
2013-06-08,8638.75
2013-06-09,9602.5
2013-06-10,9097.83333
2013-06-11,9602.0
2013-06-12,9620.66667
2013-06-13,8785.45833
2013-06-14,6198.70833
2013-06-15,7553.95833
2013-06-16,8008.58333
2013-06-17,8986.625
2013-06-18,9230.70833
2013-06-19,8529.0
2013-06-20,8864.125
2013-06-21,7673.625
2013-06-22,8500.875
2013-06-23,9141.70833
2013-06-24,9154.79167
2013-06-25,8776.79167
2013-06-26,8434.875
2013-06-27,7897.58333
2013-06-28,6506.33333
2013-06-29,7503.04167
2013-06-30,8320.20833
2013-07-01,8521.45833
2013-07-02,8807.625
2013-07-03,9070.75
2013-07-04,8482.08333
2013-07-05,6350.41667
2013-07-06,7330.33333
2013-07-07,8006.75
2013-07-08,7766.125
2013-07-09,7426.29167
2013-07-10,7003.0
2013-07-11,8292.875
2013-07-12,7968.16667
2013-07-13,7946.16667
2013-07-14,8482.20833
2013-07-15,8285.41667
2013-07-16,7738.625
2013-07-17,7599.625
2013-07-18,7294.04167
2013-07-19,5610.91667
2013-07-20,6782.70833
2013-07-21,6472.875
2013-07-22,6824.5
2013-07-23,6662.25
2013-07-24,7310.70833
2013-07-25,6348.29167
2013-07-26,5258.75
2013-07-27,5833.875
2013-07-28,6061.75
2013-07-29,6272.66667
2013-07-30,6572.54167
2013-07-31,6988.5
2013-08-01,6946.54167
2013-08-02,6287.25
2013-08-03,6949.625
2013-08-04,7658.95833
2013-08-05,7268.83333
2013-08-06,7634.79167
2013-08-07,8037.70833
2013-08-08,7022.20833
2013-08-09,6182.58333
2013-08-10,6788.375
2013-08-11,7739.875
2013-08-12,7419.5
2013-08-13,7856.625
2013-08-14,8557.04167
2013-08-15,8554.08333
2013-08-16,6502.95833
2013-08-17,7271.29167
2013-08-18,7838.83333
2013-08-19,8169.875
2013-08-20,8178.45833
2013-08-21,8606.29167
2013-08-22,7484.79167
2013-08-23,5745.5
2013-08-24,6607.875
2013-08-25,6725.25
2013-08-26,5649.33333
2013-08-27,4794.29167
2013-08-28,3956.375
2013-08-29,3559.16667
2013-08-30,3148.83333
2013-08-31,5628.70833
2013-09-01,6370.58333
2013-09-02,5847.25
2013-09-03,6454.125
2013-09-04,6028.20833
2013-09-05,4887.45833
2013-09-06,3520.25
2013-09-07,5032.125
2013-09-08,5178.41667
2013-09-09,5143.0
2013-09-10,5721.75
2013-09-11,5695.125
2013-09-12,4903.25
2013-09-13,4177.0
2013-09-14,5125.20833
2013-09-15,6852.58333
2013-09-16,7180.625
2013-09-17,7365.41667
2013-09-18,7492.5
2013-09-19,7189.75
2013-09-20,5949.25
2013-09-21,7405.375
2013-09-22,8284.95833
2013-09-23,8707.375
2013-09-24,8695.95833
2013-09-25,8755.875
2013-09-26,8114.91667
2013-09-27,6919.20833
2013-09-28,7639.125
2013-09-29,7933.29167
2013-09-30,7601.04167
2013-10-01,8090.45833
2013-10-02,7681.45833
2013-10-03,7341.91667
2013-10-04,6079.16667
2013-10-05,7145.20833
2013-10-06,8076.25
2013-10-07,8272.91667
2013-10-08,8093.625
2013-10-09,7437.16667
2013-10-10,6892.0
2013-10-11,6028.20833
2013-10-12,6498.08333
2013-10-13,6274.70833
2013-10-14,6349.83333
2013-10-15,6026.91667
2013-10-16,6032.875
2013-10-17,5891.0
2013-10-18,5644.79167
2013-10-19,6546.33333
2013-10-20,6817.875
2013-10-21,6694.875
2013-10-22,6702.04167
2013-10-23,6408.83333
2013-10-24,5751.54167
2013-10-25,5203.33333
2013-10-26,6100.625
2013-10-27,6426.29167
2013-10-28,6260.91667
2013-10-29,5739.83333
2013-10-30,5585.45833
2013-10-31,5196.375
2013-11-01,4165.45833
2013-11-02,4999.625
2013-11-03,5192.83333
2013-11-04,5331.75
2013-11-05,5574.0
2013-11-06,5901.75
2013-11-07,6037.375
2013-11-08,4949.08333
2013-11-09,6000.08333
2013-11-10,6779.95833
2013-11-11,7290.25
2013-11-12,6894.5
2013-11-13,6519.66667
2013-11-14,6093.875
2013-11-15,5204.5
2013-11-16,5091.41667
2013-11-17,5464.41667
2013-11-18,5340.33333
2013-11-19,4470.625
2013-11-20,5145.79167
2013-11-21,4728.375
2013-11-22,3976.20833
2013-11-23,3350.25
2013-11-24,3237.54167
2013-11-25,2811.83333
2013-11-26,2670.66667
2013-11-27,2423.45833
2013-11-28,2706.45833
2013-11-29,3092.41667
2013-11-30,3943.16667
2013-12-01,4383.04167
2013-12-02,4591.79167
2013-12-03,3993.25
2013-12-04,2690.91667
2013-12-05,2658.0
2013-12-06,3422.41667
2013-12-07,3628.375
2013-12-08,4178.33333
2013-12-09,4600.45833
2013-12-10,4365.875
2013-12-11,4629.04167
2013-12-12,4748.04167
2013-12-13,3891.75
2013-12-14,4319.41667
2013-12-15,4487.04167
2013-12-16,4977.45833
2013-12-17,4521.70833
2013-12-18,4379.29167
2013-12-19,4225.25
2013-12-20,3456.75
2013-12-21,3276.29167
2013-12-22,1999.83333
2013-12-23,
2013-12-24,3019.7
2013-12-25,3281.20833
2013-12-26,2534.625
2013-12-27,2139.91667
2013-12-28,3437.0
2013-12-29,5073.58333
2013-12-30,3751.16667
2013-12-31,3971.54167
2014-01-01,3672.5
2014-01-02,3325.875
2014-01-03,2472.66667
2014-01-04,4656.41667
2014-01-05,4217.79167
2014-01-06,3964.45833
2014-01-07,3967.75
2014-01-08,4211.5
2014-01-09,4619.41667
2014-01-10,4227.41667
2014-01-11,4897.66667
2014-01-12,5217.20833
2014-01-13,4971.45833
2014-01-14,5000.375
2014-01-15,5676.29167
2014-01-16,5636.54167
2014-01-17,4071.16667
2014-01-18,5399.54167
2014-01-19,5875.25
2014-01-20,6808.08333
2014-01-21,6568.75
2014-01-22,6394.91667
2014-01-23,6211.45833
2014-01-24,4779.33333
2014-01-25,5353.66667
2014-01-26,5818.08333
2014-01-27,6001.29167
2014-01-28,5592.95833
2014-01-29,4945.70833
2014-01-30,4583.875
2014-01-31,4344.16667
2014-02-01,4625.08333
2014-02-02,5769.83333
2014-02-03,6018.125
2014-02-04,6081.54167
2014-02-05,6081.70833
2014-02-06,5486.33333
2014-02-07,4970.33333
2014-02-08,5589.625